Location: Sortland
(68.7020°N, 15.4240°E)
Time: 11:00:13
(UTC+01:00)

Envisat - Pass Details

Date: 28 October 2019
Orbit: 764 x 766 km, 98.1° (Epoch: 22 November)

Event Time Altitude Azimuth Distance (km) Brightness Sun altitude
Rises 05:29:16 0° 16° (NNE) 3,251 6.4 -13.3°
Reaches altitude 10° 05:32:11 10° 33° (NNE) 2,320 5.9 -13.0°
Maximum altitude 05:35:57 20° 80° (E) 1,708 5.9 -12.7°
Drops below altitude 10° 05:39:43 10° 128° (SE) 2,309 6.4 -12.3°
Sets 05:42:36 0° 145° (SE) 3,231 6.9 -12.1°
